Location: *
(57.8420°S, 159.8600°W)
Time: 05:15:04
(UTC+00:00)

H-2A R/B - Pass Details

Date: 18 May 2021
Orbit: 576 x 655 km, 98.5° (Epoch: 20 June)

Event Time Altitude Azimuth Distance (km) Brightness Sun altitude
Rises 03:55:35 0° 1° (N) 2,811 5.7 -11.3°
Reaches altitude 10° 03:57:48 10° 355° (N) 1,914 4.9 -11.6°
Maximum altitude 04:01:48 46° 281° (W) 802 3.2 -12.1°
Drops below altitude 10° 04:05:51 10° 206° (SSW) 1,940 4.7 -12.6°
Sets 04:08:07 0° 200° (SSW) 2,853 5.5 -12.9°
